• In Deutschland
  • Länderverzeichnis
  • Für 7 Tage
  • Wassertemperatur
  • Satellitenkarten
  • Wetterkarte
  • Widgets
  • user-avatar
    Anmelden

    Stündliche Wetter Smolan

    Heute, 22 Juli, Sonntag

    Zeit Temperatur Niederschläge Wind Luftdruck Luftfeuchtigkeit
    00:00 +15°C° 0 mm 2 m/S 655 mmHg 66%
    01:00 +15°C° 0 mm 2 m/S 655 mmHg 65%
    02:00 +15°C° 0 mm 2 m/S 655 mmHg 64%
    03:00 +15°C° 0 mm 2 m/S 655 mmHg 63%
    04:00 +15°C° 0 mm 2 m/S 655 mmHg 62%
    05:00 +15°C° 0 mm 2 m/S 655 mmHg 61%
    06:00 +18°C° 0 mm 1 m/S 655 mmHg 56%
    07:00 +21°C° 0 mm 1 m/S 656 mmHg 52%
    08:00 +21°C° 0 mm 0 m/S 657 mmHg 47%
    09:00 +25°C° 0 mm 1 m/S 657 mmHg 43%
    10:00 +26°C° 0 mm 1 m/S 657 mmHg 40%
    11:00 +28°C° 0 mm 2 m/S 657 mmHg 36%
    12:00 +28°C° 0 mm 2 m/S 657 mmHg 36%
    13:00 +28°C° 0 mm 3 m/S 657 mmHg 36%
    14:00 +29°C° 0 mm 3 m/S 656 mmHg 36%
    15:00 +28°C° 0 mm 3 m/S 656 mmHg 39%
    16:00 +27°C° 0 mm 3 m/S 655 mmHg 42%
    17:00 +27°C° 0 mm 3 m/S 655 mmHg 45%
    18:00 +25°C° 0 mm 2 m/S 654 mmHg 52%
    19:00 +23°C° 0 mm 2 m/S 653 mmHg 59%
    20:00 +21°C° 0 mm 1 m/S 653 mmHg 66%
    21:00 +20°C° 0 mm 1 m/S 653 mmHg 67%
    22:00 +19°C° 0 mm 1 m/S 653 mmHg 69%
    23:00 +18°C° 0 mm 1 m/S 652 mmHg 71%

    Morgen, 23 Juli, Montag

    Zeit Temperatur Niederschläge Wind Luftdruck Luftfeuchtigkeit
    00:00 +17°C° 0 mm 2 m/S 652 mmHg 69%
    01:00 +16°C° 0 mm 2 m/S 652 mmHg 68%
    02:00 +16°C° 0 mm 2 m/S 652 mmHg 67%
    03:00 +16°C° 0 mm 2 m/S 652 mmHg 66%
    04:00 +15°C° 0 mm 2 m/S 651 mmHg 65%
    05:00 +15°C° 0 mm 2 m/S 651 mmHg 64%
    06:00 +18°C° 0 mm 2 m/S 652 mmHg 60%
    07:00 +21°C° 0 mm 1 m/S 652 mmHg 55%
    08:00 +23°C° 0 mm 1 m/S 653 mmHg 51%
    09:00 +24°C° 0 mm 1 m/S 653 mmHg 46%
    10:00 +26°C° 0 mm 2 m/S 653 mmHg 42%
    11:00 +27°C° 0 mm 2 m/S 654 mmHg 38%
    12:00 +27°C° 0,2 mm 2 m/S 653 mmHg 39%
    13:00 +27°C° 0,2 mm 2 m/S 653 mmHg 40%
    14:00 +27°C° 0,2 mm 2 m/S 652 mmHg 41%
    15:00 +26°C° 1 mm 2 m/S 652 mmHg 48%
    16:00 +24°C° 1 mm 2 m/S 651 mmHg 54%
    17:00 +23°C° 1 mm 2 m/S 650 mmHg 61%
    18:00 +20°C° 1,7 mm 2 m/S 650 mmHg 68%
    19:00 +18°C° 1,7 mm 2 m/S 650 mmHg 75%
    20:00 +16°C° 1,7 mm 2 m/S 649 mmHg 83%
    21:00 +16°C° 1,7 mm 2 m/S 649 mmHg 85%
    22:00 +15°C° 1,7 mm 2 m/S 649 mmHg 88%
    23:00 +14°C° 1,7 mm 2 m/S 649 mmHg 91%

    übermorgen, 24 Juli, Dienstag

    Zeit Temperatur Niederschläge Wind Luftdruck Luftfeuchtigkeit
    00:00 +14°C° 1,3 mm 2 m/S 649 mmHg 91%
    01:00 +14°C° 1,3 mm 2 m/S 649 mmHg 91%
    02:00 +14°C° 1,3 mm 2 m/S 648 mmHg 91%
    03:00 +14°C° 0,4 mm 2 m/S 648 mmHg 91%
    04:00 +14°C° 0,4 mm 2 m/S 648 mmHg 90%
    05:00 +13°C° 0,4 mm 2 m/S 648 mmHg 90%
    06:00 +14°C° 0,6 mm 2 m/S 649 mmHg 88%
    07:00 +14°C° 0,6 mm 2 m/S 649 mmHg 87%
    08:00 +14°C° 0,6 mm 2 m/S 649 mmHg 85%
    09:00 +16°C° 0,1 mm 2 m/S 650 mmHg 77%
    10:00 +18°C° 0,1 mm 3 m/S 651 mmHg 69%
    11:00 +20°C° 0,1 mm 3 m/S 651 mmHg 61%
    12:00 +20°C° 0,5 mm 2 m/S 651 mmHg 61%
    13:00 +21°C° 0,5 mm 2 m/S 651 mmHg 60%
    14:00 +21°C° 0,5 mm 2 m/S 652 mmHg 59%
    15:00 +21°C° 0,7 mm 2 m/S 651 mmHg 61%
    16:00 +21°C° 0,7 mm 2 m/S 651 mmHg 63%
    17:00 +21°C° 0,7 mm 2 m/S 651 mmHg 64%
    18:00 +20°C° 0,4 mm 1 m/S 651 mmHg 70%
    19:00 +18°C° 0,4 mm 1 m/S 651 mmHg 76%
    20:00 +16°C° 0,4 mm 1 m/S 650 mmHg 81%
    21:00 +15°C° 0 mm 1 m/S 651 mmHg 83%
    22:00 +15°C° 0 mm 1 m/S 651 mmHg 85%
    23:00 +14°C° 0 mm 2 m/S 651 mmHg 86%

    25 Juli, Mittwoch

    Zeit Temperatur Niederschläge Wind Luftdruck Luftfeuchtigkeit
    00:00 +14°C° 0 mm 2 m/S 651 mmHg 86%
    01:00 +14°C° 0 mm 2 m/S 651 mmHg 86%
    02:00 +14°C° 0 mm 2 m/S 651 mmHg 86%
    03:00 +13°C° 0 mm 2 m/S 651 mmHg 85%
    04:00 +13°C° 0 mm 2 m/S 651 mmHg 85%
    05:00 +13°C° 0 mm 2 m/S 651 mmHg 84%
    06:00 +15°C° 0 mm 2 m/S 651 mmHg 80%
    07:00 +16°C° 0 mm 1 m/S 652 mmHg 77%
    08:00 +18°C° 0 mm 1 m/S 653 mmHg 73%
    09:00 +20°C° 0,2 mm 1 m/S 653 mmHg 69%
    10:00 +21°C° 0,2 mm 1 m/S 654 mmHg 65%
    11:00 +22°C° 0,2 mm 1 m/S 654 mmHg 62%
    12:00 +22°C° 0,8 mm 1 m/S 654 mmHg 62%
    13:00 +23°C° 0,8 mm 2 m/S 654 mmHg 63%
    14:00 +23°C° 0,8 mm 2 m/S 654 mmHg 63%
    15:00 +21°C° 1,2 mm 2 m/S 653 mmHg 66%
    16:00 +22°C° 1,2 mm 1 m/S 653 mmHg 69%
    17:00 +21°C° 1,2 mm 1 m/S 653 mmHg 72%
    18:00 +20°C° 0,5 mm 1 m/S 653 mmHg 75%
    19:00 +19°C° 0,5 mm 1 m/S 653 mmHg 79%
    20:00 +18°C° 0,5 mm 1 m/S 652 mmHg 82%
    21:00 +16°C° 0,4 mm 1 m/S 652 mmHg 83%
    22:00 +16°C° 0,4 mm 1 m/S 653 mmHg 85%
    23:00 +15°C° 0,4 mm 1 m/S 653 mmHg 86%

    26 Juli, Donnerstag

    Zeit Temperatur Niederschläge Wind Luftdruck Luftfeuchtigkeit
    00:00 +15°C° 0,2 mm 2 m/S 652 mmHg 87%
    01:00 +15°C° 0,2 mm 2 m/S 652 mmHg 87%
    02:00 +15°C° 0,2 mm 2 m/S 652 mmHg 87%
    03:00 +14°C° 0,2 mm 2 m/S 652 mmHg 87%
    04:00 +14°C° 0,2 mm 2 m/S 652 mmHg 87%
    05:00 +14°C° 0,2 mm 2 m/S 652 mmHg 87%
    06:00 +16°C° 0,2 mm 2 m/S 653 mmHg 82%
    07:00 +17°C° 0,2 mm 2 m/S 653 mmHg 77%
    08:00 +20°C° 0,2 mm 1 m/S 654 mmHg 72%
    09:00 +20°C° 0,7 mm 2 m/S 654 mmHg 68%
    10:00 +21°C° 0,7 mm 2 m/S 655 mmHg 64%
    11:00 +23°C° 0,7 mm 2 m/S 655 mmHg 60%
    12:00 +23°C° 0,6 mm 2 m/S 655 mmHg 59%
    13:00 +24°C° 0,6 mm 2 m/S 655 mmHg 58%
    14:00 +24°C° 0,6 mm 2 m/S 655 mmHg 57%
    15:00 +24°C° 0,8 mm 2 m/S 655 mmHg 60%
    16:00 +23°C° 0,8 mm 2 m/S 654 mmHg 63%
    17:00 +23°C° 0,8 mm 2 m/S 654 mmHg 67%
    18:00 +21°C° 0,2 mm 1 m/S 654 mmHg 71%
    19:00 +20°C° 0,2 mm 1 m/S 654 mmHg 75%
    20:00 +18°C° 0,2 mm 1 m/S 654 mmHg 79%
    21:00 +18°C° 0,2 mm 1 m/S 654 mmHg 81%
    22:00 +16°C° 0,2 mm 1 m/S 654 mmHg 82%
    23:00 +16°C° 0,2 mm 2 m/S 654 mmHg 84%

    27 Juli, Freitag

    Zeit Temperatur Niederschläge Wind Luftdruck Luftfeuchtigkeit
    00:00 +16°C° 0,4 mm 2 m/S 654 mmHg 85%
    01:00 +15°C° 0,4 mm 2 m/S 654 mmHg 86%
    02:00 +15°C° 0,4 mm 2 m/S 653 mmHg 87%
    03:00 +15°C° 0,3 mm 2 m/S 654 mmHg 87%
    04:00 +15°C° 0,3 mm 2 m/S 654 mmHg 87%
    05:00 +14°C° 0,3 mm 2 m/S 654 mmHg 88%
    06:00 +16°C° 0,1 mm 2 m/S 654 mmHg 82%
    07:00 +19°C° 0,1 mm 1 m/S 655 mmHg 77%
    08:00 +21°C° 0,1 mm 1 m/S 655 mmHg 71%
    09:00 +22°C° 0 mm 1 m/S 656 mmHg 64%
    10:00 +24°C° 0 mm 2 m/S 656 mmHg 56%
    11:00 +25°C° 0 mm 2 m/S 657 mmHg 49%
    12:00 +25°C° 0,3 mm 2 m/S 657 mmHg 49%
    13:00 +26°C° 0,3 mm 2 m/S 656 mmHg 49%
    14:00 +26°C° 0,3 mm 2 m/S 656 mmHg 49%
    15:00 +26°C° 0,4 mm 2 m/S 656 mmHg 50%
    16:00 +26°C° 0,4 mm 2 m/S 656 mmHg 51%
    17:00 +25°C° 0,4 mm 2 m/S 656 mmHg 52%
    18:00 +23°C° 0,2 mm 2 m/S 655 mmHg 57%
    19:00 +22°C° 0,2 mm 1 m/S 655 mmHg 63%
    20:00 +20°C° 0,2 mm 1 m/S 654 mmHg 69%
    21:00 +19°C° 0,1 mm 1 m/S 654 mmHg 71%
    22:00 +18°C° 0,1 mm 1 m/S 654 mmHg 73%
    23:00 +17°C° 0,1 mm 2 m/S 654 mmHg 75%
    Mehr zeigen